Simultaneous Nadir Overpasses (SNOs) Predictions

Prediction of SNOs between GOES-16 and NPP Satellite Orbit:

Table of predicted SNOs for the next 14.0 days since TLE Epoch: 10/31/2017
Index Date Time (GOES-16) GOES-16 Lat,Lon NPP Lat,Lon Distance(km) Time Diff (sec)
1 10/31/2017 19:30:33 0.00, -89.30 -0.48, -91.58 259.09 80
2 11/01/2017 19:14:28 0.00, -89.30 0.49, -87.04 257.02 80
3 11/03/2017 07:36:15 -0.00, -89.29 0.69, -92.31 344.72 80
4 11/04/2017 07:14:51 -0.00, -89.29 -0.34, -87.78 171.23 80
5 11/05/2017 19:36:47 0.00, -89.29 -0.85, -93.09 433.45 80
6 11/06/2017 19:20:42 0.00, -89.29 0.18, -88.56 82.65 80
7 11/09/2017 07:23:44 0.00, -89.28 0.03, -89.29 4.10 80
8 11/11/2017 19:24:16 0.00, -89.28 -0.19, -90.07 90.74 80
9 11/12/2017 19:08:12 0.00, -89.29 0.84, -85.55 426.00 80




NCC Satellite Simultaneous Nadir Overpasses (SNOs) Prediction Service
